User: anonymous
Location: Fort Wayne
(41.1310°N, 85.1290°W)
Time: 00:46:46
(UTC-04:00)
Language:

Cosmos 2219 Rocket - Orbit

View from above orbital plane
View from above orbital plane
View from above satellite
View from above satellite

Ground track
Ground track

The orbit data is extracted from the following two-line orbital elements,

1 22220U 92076B   14294.17362358  .00000074  00000-0  61530-4 0  4385
2 22220 070.9997 300.9452 0014900 305.9092 122.1912 14.16324357133423
Epoch (UTC): 21 October 2014 04:10:01
Eccentricity: 0.0014900
inclination: 70.9997°
perigee height: 827 km
apogee height: 848 km
right ascension of ascending node: 300.9452°
argument of perigee: 305.9092°
revolutions per day: 14.16324357
mean anomaly at epoch: 122.1912°
orbit number at epoch: 13342

The dashed part of the orbit path shows where the satellite is in the earth's shadow,  

DLR